FW2265 Weather Reports


time (UTC)temp
F
wind
direction
speed
knots
gust
knots
rain 1hr
in
rain 24hr
in
rain mn
in
humidity
%
barometer
mb
20260504223036 77 189 0.0 2.6 0.00 0.00 0.00 63 1012.7
20260504221035 77 184 0.9 3.5 0.00 0.00 0.00 62 1012.8
20260504220036 78 178 0.9 4.3 0.00 0.00 0.00 61 1012.8
20260504215036 78 202 0.9 1.7 0.00 0.00 0.00 60 1013.0
20260504214033 79 201 1.7 4.3 0.00 0.00 0.00 60 1013.2
20260504213036 79 180 0.0 0.0 0.00 0.00 0.00 59 1013.1
20260504212133 80 161 0.0 1.7 0.00 0.00 0.00 57 1013.1
20260504211136 81 213 0.9 1.7 0.00 0.00 0.00 56 1013.2
20260504205235 81 195 0.9 4.3 0.00 0.00 0.00 56 1013.3
20260504204235 81 220 0.9 2.6 0.00 0.00 0.00 54 1013.6
20260504203233 81 198 0.9 2.6 0.00 0.00 0.00 54 1013.7
20260504203134 81 216 1.7 4.3 0.00 0.00 0.00 54 1013.8
20260504202233 81 207 0.0 1.7 0.00 0.00 0.00 54 1013.8
20260504201235 81 211 1.7 4.3 0.00 0.00 0.00 53 1014.0
20260504200236 82 208 0.0 3.5 0.00 0.00 0.00 53 1014.0
20260504195333 81 225 0.0 0.9 0.00 0.00 0.00 52 1014.0
20260504193434 83 191 0.0 0.0 0.00 0.00 0.00 51 1014.4
20260504192434 83 217 0.9 2.6 0.00 0.00 0.00 50 1014.7
20260504191435 82 190 0.0 0.9 0.00 0.00 0.00 52 1014.8
20260504185534 81 194 1.7 4.3 0.00 0.00 0.00 51 1014.9
20260504184537 82 161 0.0 3.5 0.00 0.00 0.00 52 1014.7
20260504183533 81 228 0.9 3.5 0.00 0.00 0.00 52 1014.7
20260504181536 81 223 0.9 2.6 0.00 0.00 0.00 51 1015.2
20260504180534 80 188 0.0 2.6 0.00 0.00 0.00 54 1015.3
20260504175533 80 180 0.0 0.9 0.00 0.00 0.00 52 1015.4
20260504174536 81 173 0.0 1.7 0.00 0.00 0.00 51 1015.3
20260504173536 81 201 0.9 4.3 0.00 0.00 0.00 52 1015.7
20260504172536 81 214 2.6 5.2 0.00 0.00 0.00 51 1015.9
20260504171635 80 183 0.0 1.7 0.00 0.00 0.00 53 1015.7
20260504170733 79 206 0.9 2.6 0.00 0.00 0.00 54 1016.2
20260504151034 76 191 0.0 2.6 0.00 0.00 0.00 60 1016.8
20260504141132 72 203 0.0 2.6 0.00 0.00 0.00 65 1016.8
20260504141033 72 225 0.9 1.7 0.00 0.00 0.00 65 1016.8
20260504120236 57 225 0.0 0.0 0.00 0.00 0.00 88 1016.8
20260504110433 58 225 0.0 0.0 0.00 0.00 0.00 87 1016.5
20260504081134 62 225 0.0 0.0 0.00 0.00 0.00 71 1017.4
20260504080134 63 225 0.0 0.0 0.00 0.00 0.00 69 1017.7
20260504050533 61 225 0.0 0.0 0.00 0.00 0.00 72 1019.3
20260504045537 61 225 0.0 0.0 0.00 0.00 0.00 72 1019.4
20260504045439 61 225 0.0 0.0 0.00 0.00 0.00 72 1019.4
20260504044439 62 225 0.0 0.0 0.00 0.00 0.00 70 1019.5
20260504042440 63 225 0.0 0.0 0.00 0.00 0.00 68 1019.5
20260504041440 63 225 0.0 0.0 0.00 0.00 0.00 66 1019.3
20260504041340 63 225 0.0 0.0 0.00 0.00 0.00 66 1019.3
20260504040339 64 225 0.0 0.0 0.00 0.00 0.00 64 1019.3
20260504035340 65 225 0.0 0.0 0.00 0.00 0.00 62 1019.5
20260504034338 65 225 0.0 0.0 0.00 0.00 0.00 61 1019.6
20260504033437 65 225 0.0 0.0 0.00 0.00 0.00 60 1019.6
20260504031441 66 225 0.0 0.0 0.00 0.00 0.00 59 1019.4
20260504030440 66 225 0.0 0.0 0.00 0.00 0.00 57 1019.3
20260504025440 67 225 0.0 0.0 0.00 0.00 0.00 55 1019.4
20260504023537 68 225 0.0 0.0 0.00 0.00 0.00 54 1019.5
20260504022540 68 225 0.0 0.0 0.00 0.00 0.00 53 1019.2
20260504021637 68 202 0.0 0.9 0.00 0.00 0.00 54 1019.4
20260504020639 69 225 0.0 0.9 0.00 0.00 0.00 53 1019.3
20260504015639 69 202 0.0 0.9 0.00 0.00 0.00 52 1019.2
20260504014638 69 225 0.0 0.0 0.00 0.00 0.00 52 1019.3
20260504013639 70 225 0.0 0.9 0.00 0.00 0.00 50 1019.2
20260504011741 70 225 0.0 0.9 0.00 0.00 0.00 48 1019.2
20260504010837 71 180 0.0 0.0 0.00 0.00 0.00 48 1019.1
20260504005840 71 202 0.0 0.9 0.00 0.00 0.00 48 1019.1
20260504004939 72 225 0.0 0.0 0.00 0.00 0.00 47 1019.1
20260504003939 72 225 0.0 0.0 0.00 0.00 0.00 46 1019.1
20260504002941 73 215 0.0 1.7 0.00 0.00 0.00 44 1019.0
20260504001940 73 122 0.0 0.0 0.00 0.00 0.00 43 1019.0
20260504000940 74 224 0.9 3.5 0.00 0.00 0.00 42 1019.1
20260504000037 74 217 0.0 1.7 0.00 0.00 0.00 40 1019.0
20260503235040 75 195 0.9 2.6 0.00 0.00 0.00 40 1019.1
20260503233138 76 178 0.0 0.9 0.00 0.00 0.00 38 1019.3
20260503232139 76 222 0.0 1.7 0.00 0.00 0.00 38 1019.2
20260503232037 76 225 0.9 2.6 0.00 0.00 0.00 39 1019.2
20260503231039 77 220 0.9 3.5 0.00 0.00 0.00 38 1019.2
20260503230040 77 258 0.0 0.9 0.00 0.00 0.00 38 1019.2
20260503225039 77 221 0.9 2.6 0.00 0.00 0.00 37 1019.3
20260503224038 77 225 0.0 0.9 0.00 0.00 0.00 37 1019.4
20260503223939 77 225 0.0 1.7 0.00 0.00 0.00 36 1019.5